Home > Weather > Oshawa > Past weeks

Flag for Canada Past Weather in Oshawa, Ontario, Canada — Yesterday and Last 2 Weeks

Now
70 °F

Broken clouds.


Feels Like: 70 °F
Forecast: 66 / 78 °F
Wind: 10 mph from East

Location: Toronto Buttonville

Current Time: Jul 30, 2016 at 11:18:25 AM

Latest Report: Jul 30, 2016 at 10:56 AM


Visibility: 15 mi

Pressure: 30.07 "Hg

Humidity: 60%

Dew Point: 55 °F

Location of OshawaLocation

Past Weather in Oshawa — Graph

°F

Oshawa Temperature Yesterday

Maximum temperature yesterday: 81 °F (at 4:00 PM)
Minimum temperature yesterday: 64 °F (at 5:00 AM)
Average temperature yesterday: 72 °F

High & Low Weather Summary for the Past Weeks

 TemperatureHumidityPressure
High93 °F (Jul 22, 3:00 PM)94% (Jul 16, 4:49 AM)30.28 "Hg (Jul 16, 4:49 AM)
Low55 °F (Jul 17, 4:00 AM)24% (Jul 22, 5:45 PM)29.80 "Hg (Jul 15, 10:00 AM)
Average74 °F60%29.99 "Hg
* Reported Jul 15 10:00 AM — Jul 30 10:00 AM, Oshawa, Weather by CustomWeather, © 2016

Note: Actual official high and low records may vary slightly from our data, if they occured in-between our weather recording intervals... More about our weather records

Advertising

Oshawa Weather History for the Previous 24 Hours

Scroll right to see more
 ConditionsComfort  
Time TempWeatherWind HumidityBarometerVisibility
10:00 AM
Sat, Jul 30
68 °FPartly sunny.9 mph60%30.07 "Hg15 mi
9:00 AM66 °FBroken clouds.9 mph64%30.06 "Hg15 mi
8:00 AM66 °FBroken clouds.9 mph60%30.06 "Hg15 mi
7:00 AM64 °FPartly cloudy.5 mph64%30.06 "Hg15 mi
6:00 AM64 °FPassing clouds.6 mph68%30.03 "Hg15 mi
5:00 AM66 °FPassing clouds.7 mph60%30.03 "Hg15 mi
4:00 AM66 °FPassing clouds.9 mph60%30.03 "Hg15 mi
3:00 AM66 °FPassing clouds.10 mph60%30.03 "Hg15 mi
2:00 AM66 °FPassing clouds.7 mph68%30.03 "Hg15 mi
1:00 AM66 °FPassing clouds.7 mph68%30.03 "Hg15 mi
12:00 AM68 °FPassing clouds.8 mph64%30.02 "Hg15 mi
11:00 PM
Fri, Jul 29
70 °FPassing clouds.8 mph60%30.02 "Hg15 mi
10:00 PM72 °FPassing clouds.10 mph65%30.00 "Hg15 mi
9:00 PM75 °FPartly sunny.6 mph54%29.99 "Hg15 mi
8:00 PM77 °FBroken clouds.8 mph42%29.97 "Hg15 mi
7:00 PM77 °FBroken clouds.10 mph47%29.97 "Hg15 mi
6:00 PM79 °FPartly sunny.8 mph48%29.96 "Hg15 mi
5:00 PM79 °FPartly sunny.8 mph48%29.96 "Hg15 mi
4:00 PM81 °FPartly sunny.6 mph48%29.96 "Hg15 mi
3:00 PM79 °FPartly sunny.7 mph48%29.97 "Hg15 mi
2:00 PM79 °FPartly sunny.6 mph51%29.98 "Hg15 mi
1:00 PM77 °FPartly sunny.9 mph51%29.98 "Hg15 mi
12:00 PM77 °FPartly sunny.7 mph51%29.98 "Hg15 mi
11:00 AM73 °FPartly sunny.5 mph57%29.99 "Hg15 mi
Weather by CustomWeather, © 2016

See weather overviewHow to use our weather pages